Overview Statistics Trail Chart Weather Telemetry Raw packets
 

This is the latest recevied weather packets stored in our database for station/object OE3APM-13. If no packets are shown the sender has not sent any weather packets the latest 10 day(s).

<< 10 11 12 13 14 15 16 >>
Time Temp. Humidity Pressure Rain* Wind** Luminosity Snow
1788540648 27.22° C 42% 1013.7 hPa 0 mm - 7 W/m² -
1788540345 27.22° C 42% 1013.8 hPa 0 mm - 9 W/m² -
1788540043 27.78° C 42% 1013.8 hPa 0 mm - 9 W/m² -
1788539741 27.78° C 41% 1013.8 hPa 0 mm - 11 W/m² -
1788539441 27.78° C 41% 1013.9 hPa 0 mm - 19 W/m² -
1788539141 27.78° C 41% 1013.9 hPa 0 mm - 18 W/m² -
1788538839 28.33° C 41% 1014 hPa 0 mm - 21 W/m² -
1788538538 28.33° C 40% 1014 hPa 0 mm - 35 W/m² -
1788538237 28.33° C 40% 1014.1 hPa 0 mm - 121 W/m² -
1788537939 28.33° C 40% 1014.1 hPa 0 mm - 158 W/m² -
1788537632 28.33° C 40% 1014.1 hPa 0 mm - 167 W/m² -
1788537330 28.33° C 39% 1014.2 hPa 0 mm - 183 W/m² -
1788537032 28.89° C 39% 1014.2 hPa 0 mm - 197 W/m² -
1788536746 28.89° C 39% 1014.4 hPa 0 mm - 211 W/m² -
1788536433 28.89° C 39% 1014.3 hPa 0 mm - 223 W/m² -
1788536133 28.89° C 39% 1014.3 hPa 0 mm - 237 W/m² -
1788535831 28.89° C 39% 1014.4 hPa 0 mm - 251 W/m² -
1788535531 28.89° C 39% 1014.5 hPa 0 mm - 265 W/m² -
1788535231 29.44° C 39% 1014.8 hPa 0 mm - 279 W/m² -
1788534932 29.44° C 39% 1014.8 hPa 0 mm - 294 W/m² -
1788534631 29.44° C 39% 1014.9 hPa 0 mm - 309 W/m² -
1788534331 29.44° C 41% 1015 hPa 0 mm - 320 W/m² -
1788534030 29.44° C 41% 1015 hPa 0 mm - 330 W/m² -
1788533752 29.44° C 40% 1015.1 hPa 0 mm - 350 W/m² -
1788533431 29.44° C 41% 1015.2 hPa 0 mm - 355 W/m² -

* Rain latest hour (hover to see other rain measurements)
** Current wind speed in m/s (hover to see current wind gust speed)